Location: Beang
(6.6177°N, 10.9863°W)
Time: 19:37:33
(UTC+00:00)

BREEZE-M DEB (TANK) - Visible Passes

Search period start: 25 September 2020 00:00
Search period end: 05 October 2020 00:00
Orbit: 345 x 18701 km, 52.5° (Epoch: 24 September)

Date Brightness Start Highest point End Pass type
(mag) Time Alt. Az. Time Alt. Az. Time Alt. Az.
25 Sep 8.5 04:22:35 10° NW 05:21:26 77° W 08:27:27 10° S visible
26 Sep 8.3 02:28:01 10° NNW 03:21:19 66° E 06:25:17 10° SSE visible
27 Sep 8.3 00:36:51 10° N 01:30:01 32° E 04:07:19 10° SE visible
28 Sep 8.5 04:27:10 10° NW 05:25:40 70° WSW 08:31:32 10° S visible
29 Sep 8.3 02:31:57 10° NNW 03:23:46 73° E 06:30:42 10° SSE visible
30 Sep 8.3 00:40:04 10° N 01:29:59 38° E 04:16:36 10° SE visible
01 Oct 8.6 04:31:52 10° NW 05:30:11 63° WSW 08:35:20 10° S visible
02 Oct 8.3 02:35:56 10° NNW 03:26:46 80° ENE 06:35:48 10° SSE visible
03 Oct 8.2 00:43:26 10° N 01:30:49 44° E 04:24:39 10° SSE visible
03 Oct 8.2 23:00:05 10° NE 23:28:10 13° ENE 01:15:25 10° ESE visible
04 Oct 8.6 04:36:45 10° NW 05:34:54 56° WSW 08:38:50 10° S visible
